Погода в Кандинке

Россия / Томская область     56°17′43″N   84°48′09″E
темп.,
°C
ветер,
м/с
пор.,
м/с
влажн.,
%
обл.,
%
осадки,
мм/ч
давл.,
гПа
погр.,
м
18 апреля, вс
вс1801:00−3ю3981100 0.0 1021275
04:00−2ююз31082100 0.0 1017442
07:00−1ююз41279100 0.0 1015585
10:00+3юз5117267 0.0 10131116
13:00+3зюз51183100 0.3 10121214
16:00+5юз4978100 0.6 10101195
19:00+4ююз61275100 0.8 10071057
22:00+2ю51397100 0.3 1003844
19 апреля, пн
пн1901:00+2юз51297100 1.8 998980
04:00+1зюз6128464 1.1 9961128
07:00−9сз81586100 2.1 10071156
10:00−9сз7117093 0.2 10151049
13:00−7зсз6855100 0.2 10191475
16:00−6зсз6858100 0.0 10211760
19:00−6сз5860100 0.1 10221697
22:00−7зсз486954 0.1 10231176
20 апреля, вт
вт2001:00−7зсз4880100 0.2 1023982
04:00−8зсз487865 0.1 1024802
07:00−9зсз488077 0.1 1025634
10:00−7зсз465916 0.0 1025901
13:00−3зсз454846 0.0 10251297
16:00−2зсз4544100 0.0 10241778
19:00−2з354896 0.0 10231528
22:00−5зюз1269100 0.0 102347
21 апреля, ср
ср2101:00−4ю2667100 0.0 1022251
04:00−3ююз2661100 0.0 1021538
07:00−3ююз3668100 0.0 1021973
10:00−2ю3574100 0.1 1022898
13:00+1ююв3452100 0.2 10221489
16:00+2юв2246100 0.1 10231537
19:00+1св245799 0.1 1025376
22:00−2св268973 0.0 1028180
22 апреля, чт
чт2201:00−3ссв27845 0.0 1029216
04:00−4ссв27855 0.0 1031199
07:00−4ссв37835 0.0 1034274
10:000ссв465520 0.0 10361170
13:00+2ссв4542100 0.1 10362084
16:00+3ссв4542100 0.0 10371939
19:00+2ссв466198 0.1 10401052
22:00−2с27816 0.0 1042164